DECAYED

STARLINK-31617, 59455 (Decayed)

Orbit data source: Space-Track

STARLINK-31617, 59455 was a payload satellite owned by SpaceX/Seattle (US) in LEO that was launched on Wed, 10 Apr 2024 UTC via an FALCON 9 launch vehicle from the Air Force Eastern Test Range (AFETR). Payload-class satellites include a variety of spacecraft equipped with specific instruments for various scientific and technological missions. These include communications satellites like Starlink; space stations such as the ISS; scientific satellites like the Hubble; Earth observation satellites from companies like Planet Labs, Umbra, and HawkEye 360; GPS; miniature CubeSats for education and research; and military/defense satellites.

Not visible in the next 10 days
Identifier
59455, 2024-068A
Orbit
Decayed
Country
Flag of USUS
Related business
Manufacturer
SpaceX/Seattle
Mission
Decayed Commercial Communications
Bus & Motor
STARLINK V2M, Unknown motor
Mass
730 kg wet, ~700 kg dry
Launch date (UTC)
2024-04-10 (2 years ago)
Launch vehicle
FALCON 9
Launch site
Air Force Eastern Test Range (AFETR)
Object type
Payload
Rocket body
Debris
Shape & HBR
Box + 2 Pan, 17.7 m
Radar Cross Section
33.884 m², Large (>1 m²)

Expand to show TLE details & history
Last TLE update: 1 year ago

TLE from 1 year ago
0 STARLINK-31617
1 59455U 24068A   25122.83702049  .46473053  92436-5  48617-2 0  9992
2 59455  42.9755 330.3582 0017528 275.3850 205.6345 16.36077508 61217
Epoch: 2025-05-02T20:05Z
TLE epoch observation values (Epoch: 2025-05-02T20:05:18.570Z)
Latitude
35.92588°
Longitude
-62.59987°
Altitude
188.189 km
Speed
7.793 km/s
True Right ascension
06h 38m 51s
True Declination
35° 44' 54"
Sunlit
Object was in daylight at epoch
Visualization orbit readout
Latitude
Unknown
Longitude
Unknown
Altitude
Unknown
Speed
Unknown
Apparent Right ascension
Unknown
Apparent Declination
Unknown
Sunlit
N/A
Visualization observer readout
Local Sidereal Time
21:28:36
Azimuth
Unknown
Elevation
Unknown
Doppler factor
Unknown
Orbital elements
Apogee altitude
189.79 km
Perigee altitude
166.806 km
Semi-major axis
6,556.435 km
Eccentricity
0.00175
Inclination
42.9755°
RAAN
330.3582°
Arg. of periapsis
275.385°
True anomaly
205.54778°
Mean anomaly
205.6345°
Eccentric anomaly
205.59112°
Mean motion
4.08829 °/min
Orbital period
88.06 mins
BSTAR
0.0048617
Loading maneuver chart data...
Computing Atmospheric mass density...
Loading historical data...
Loading historical data...
Loading historical data...
Loading historical data...
Loading historical data...
Loading historical data...
Loading historical data...

Documentation

Showing up to 5 results
|